Change the Weather History Date:

Monday, June 24, 2013

  Actual Average (KP28) Record (KP28)
Temperature  
Mean Temperature 82 °F 79 °F  
Max Temperature 93 °F 91 °F 111 °F (1897)
Min Temperature 71 °F 67 °F 48 °F (1940)
Degree Days  
Heating Degree Days 0 0  
Month to date heating degree days 0  
Since 1 June heating degree days 0  
Since 1 July heating degree days 4455  
Cooling Degree Days 17 14  
Month to date cooling degree days 264  
Year to date cooling degree days 420  
Since 1 June cooling degree days 264  
Growing Degree Days 32 (Base 50)    
Moisture  
Dew Point 61 °F    
Average Humidity 56    
Maximum Humidity 78    
Minimum Humidity 26    
Precipitation  
Precipitation 0.10 in 0.13 in 1.64 in (1915)
Month to date precipitation 3.46  
Year to date precipitation 13.20  
Snow  
Snow 0.00 in 0.00 in - ()
Month to date snowfall 0.0  
Since 1 June snowfall 0.0  
Since 1 July snowfall 8.5  
Snow Depth -    
Sea Level Pressure  
Sea Level Pressure 29.86 in    
Wind  
Wind Speed 18 mph (South)    
Max Wind Speed 30 mph    
Max Gust Speed 44 mph    
Visibility 10 miles    
Events Rain , Thunderstorm    
T = Trace of Precipitation, MM = Missing Value Source: NWS Daily Summary

Daily Weather History Graph

Daily Weather History Graph

Search for Another Location

Airport or City:

Trip Planner

Search our weather history database for the weather conditions in past years. The results will help you decide how hot, cold, wet, or windy it might be!

Date:

Astronomy

Jun. 24, 2013 Rise Set
Actual Time 6:14 AM CDT 9:00 PM CDT
Civil Twilight 5:43 AM CDT 9:31 PM CDT
Nautical Twilight 5:03 AM CDT 10:11 PM CDT
Astronomical Twilight 4:19 AM CDT 10:55 PM CDT
Moon 10:06 PM CDT (6/24) 7:41 AM CDT (6/24)
Length of Visible Light 15h 48m
Length of Day
14h 46m
Full, 98% of the Moon is Illuminated
Jun 24
Full
Jun 29
Last Quarter
Jul 8
New
Jul 15
First Quarter
Jul 22
Full

Hourly Weather History & Observations

Time (CDT) Temp. Heat Index Dew Point Humidity Pressure Visibility Wind Dir Wind Speed Gust Speed Precip Events Conditions
12:15 AM 78.8 °F - 62.6 °F 57% 29.87 in 10.0 mi SSE 17.3 mph 24.2 mph N/A   Clear
12:35 AM 78.8 °F - 62.6 °F 57% 29.87 in 10.0 mi SSE 17.3 mph 23.0 mph N/A   Clear
12:55 AM 78.8 °F - 62.6 °F 57% 29.87 in 10.0 mi SSE 18.4 mph 26.5 mph N/A   Clear
1:15 AM 77.0 °F - 62.6 °F 61% 29.87 in 10.0 mi SSE 17.3 mph 25.3 mph N/A   Clear
1:35 AM 77.0 °F - 62.6 °F 61% 29.87 in 10.0 mi SSE 19.6 mph 23.0 mph N/A   Clear
1:55 AM 77.0 °F - 62.6 °F 61% 29.87 in 10.0 mi SSE 19.6 mph 26.5 mph N/A   Clear
2:15 AM 77.0 °F - 62.6 °F 61% 29.87 in 10.0 mi SSE 15.0 mph 25.3 mph N/A   Clear
2:35 AM 77.0 °F - 62.6 °F 61% 29.87 in 10.0 mi SSE 16.1 mph 23.0 mph N/A   Clear
2:55 AM 73.4 °F - 62.6 °F 69% 29.87 in 10.0 mi SSE 15.0 mph 20.7 mph N/A   Clear
3:15 AM 73.4 °F - 62.6 °F 69% 29.87 in 10.0 mi SSE 13.8 mph - N/A   Clear
3:35 AM 73.4 °F - 62.6 °F 69% 29.87 in 10.0 mi SSE 15.0 mph - N/A   Clear
3:55 AM 73.4 °F - 62.6 °F 69% 29.87 in 10.0 mi SSE 16.1 mph 21.9 mph N/A   Clear
4:15 AM 73.4 °F - 62.6 °F 69% 29.87 in 10.0 mi South 16.1 mph - N/A   Clear
4:35 AM 73.4 °F - 62.6 °F 69% 29.87 in 10.0 mi South 13.8 mph - N/A   Clear
4:55 AM 73.4 °F - 62.6 °F 69% 29.86 in 10.0 mi South 12.7 mph - N/A   Clear
5:15 AM 73.4 °F - 62.6 °F 69% 29.86 in 10.0 mi South 16.1 mph - N/A   Clear
5:35 AM 73.4 °F - 62.6 °F 69% 29.87 in 10.0 mi South 17.3 mph 23.0 mph N/A   Clear
5:55 AM 71.6 °F - 62.6 °F 73% 29.87 in 10.0 mi South 12.7 mph 18.4 mph N/A   Clear
6:15 AM 71.6 °F - 62.6 °F 73% 29.87 in 10.0 mi South 12.7 mph - N/A   Clear
6:35 AM 71.6 °F - 60.8 °F 69% 29.88 in 10.0 mi SSE 13.8 mph 19.6 mph N/A   Clear
6:55 AM 71.6 °F - 60.8 °F 69% 29.88 in 10.0 mi SSE 12.7 mph - N/A   Clear
7:15 AM 71.6 °F - 60.8 °F 69% 29.88 in 10.0 mi SSE 13.8 mph - N/A   Clear
7:35 AM 73.4 °F - 60.8 °F 65% 29.87 in 10.0 mi SSE 16.1 mph 21.9 mph N/A   Clear
7:55 AM 73.4 °F - 60.8 °F 65% 29.88 in 10.0 mi South 17.3 mph 21.9 mph N/A   Clear
8:15 AM 77.0 °F - 60.8 °F 57% 29.88 in 10.0 mi South 21.9 mph 28.8 mph N/A   Clear
8:35 AM 78.8 °F - 60.8 °F 54% 29.88 in 10.0 mi South 29.9 mph 35.7 mph N/A   Clear
8:55 AM 78.8 °F - 60.8 °F 54% 29.88 in 10.0 mi South 28.8 mph 33.4 mph N/A   Clear
9:15 AM 80.6 °F 81.5 °F 60.8 °F 51% 29.89 in 10.0 mi South 23.0 mph 32.2 mph N/A   Clear
9:35 AM 77.0 °F - 60.8 °F 57% 29.88 in 10.0 mi South 29.9 mph 34.5 mph N/A   Scattered Clouds
9:55 AM 77.0 °F - 59.0 °F 54% 29.88 in 10.0 mi South 25.3 mph 36.8 mph N/A   Scattered Clouds
10:15 AM 77.0 °F - 60.8 °F 57% 29.90 in 10.0 mi South 25.3 mph 33.4 mph N/A Thunderstorm Scattered Clouds
10:35 AM 77.0 °F - 60.8 °F 57% 29.90 in 10.0 mi South 20.7 mph 25.3 mph N/A Rain Light Rain
10:55 AM 75.2 °F - 62.6 °F 65% 29.90 in 7.0 mi South 18.4 mph - N/A Rain , Thunderstorm Light Thunderstorms and Rain
11:15 AM 77.0 °F - 62.6 °F 61% 29.90 in 10.0 mi South 20.7 mph 26.5 mph N/A   Scattered Clouds
11:35 AM 78.8 °F - 60.8 °F 54% 29.90 in 10.0 mi South 16.1 mph 27.6 mph N/A   Clear
11:55 AM 77.0 °F - 62.6 °F 61% 29.91 in 10.0 mi South 17.3 mph 20.7 mph N/A   Clear
12:15 PM 78.8 °F - 62.6 °F 57% 29.91 in 10.0 mi South 16.1 mph - N/A Thunderstorm Clear
12:35 PM 78.8 °F - 62.6 °F 57% 29.91 in 10.0 mi SSW 24.2 mph 27.6 mph N/A Thunderstorm Thunderstorm
12:55 PM 77.0 °F - 62.6 °F 61% 29.90 in 10.0 mi South 15.0 mph 26.5 mph N/A Thunderstorm Thunderstorm
1:15 PM 75.2 °F - 62.6 °F 65% 29.89 in 10.0 mi SSW 16.1 mph 24.2 mph N/A   Clear
1:35 PM 78.8 °F - 62.6 °F 57% 29.87 in 10.0 mi South 23.0 mph 28.8 mph N/A   Scattered Clouds
1:55 PM 80.6 °F 82.3 °F 64.4 °F 58% 29.85 in 10.0 mi South 24.2 mph 31.1 mph N/A   Scattered Clouds
2:15 PM 86.0 °F 86.6 °F 62.6 °F 45% 29.83 in 10.0 mi South 27.6 mph 34.5 mph N/A Thunderstorm Clear
2:35 PM 86.0 °F 86.6 °F 62.6 °F 45% 29.83 in 10.0 mi South 23.0 mph 32.2 mph N/A   Clear
2:55 PM 87.8 °F 87.6 °F 60.8 °F 40% 29.83 in 10.0 mi South 25.3 mph 38.0 mph N/A   Clear
3:15 PM 89.6 °F 90.1 °F 62.6 °F 40% 29.82 in 10.0 mi South 28.8 mph 43.7 mph N/A   Clear
3:35 PM 89.6 °F 89.5 °F 60.8 °F 38% 29.81 in 10.0 mi South 25.3 mph 34.5 mph N/A   Clear
3:55 PM 91.4 °F 91.4 °F 60.8 °F 36% 29.81 in 10.0 mi South 25.3 mph 32.2 mph N/A   Clear
4:15 PM 91.4 °F 90.7 °F 59.0 °F 34% 29.80 in 10.0 mi South 27.6 mph 34.5 mph N/A   Clear
4:35 PM 93.2 °F 92.6 °F 59.0 °F 32% 29.80 in 10.0 mi South 29.9 mph 41.4 mph N/A   Clear
4:55 PM 93.2 °F 91.9 °F 57.2 °F 30% 29.79 in 10.0 mi South 26.5 mph 40.3 mph N/A   Clear
5:15 PM 91.4 °F 89.9 °F 57.2 °F 31% 29.79 in 10.0 mi South 23.0 mph 36.8 mph N/A   Clear
5:35 PM 91.4 °F 89.4 °F 55.4 °F 29% 29.79 in 10.0 mi South 21.9 mph 35.7 mph N/A   Clear
5:55 PM 91.4 °F 89.4 °F 55.4 °F 29% 29.78 in 10.0 mi South 28.8 mph 35.7 mph N/A   Clear
6:15 PM 93.2 °F 90.8 °F 53.6 °F 26% 29.77 in 10.0 mi South 25.3 mph 29.9 mph N/A   Clear
6:35 PM 89.6 °F 87.3 °F 53.6 °F 29% 29.81 in 10.0 mi SSW 19.6 mph 25.3 mph N/A   Clear
6:55 PM 87.8 °F 85.7 °F 53.6 °F 31% 29.82 in 10.0 mi South 19.6 mph 25.3 mph N/A   Clear
7:15 PM 87.8 °F 85.7 °F 53.6 °F 31% 29.82 in 10.0 mi South 15.0 mph - N/A   Clear
7:35 PM 87.8 °F 85.7 °F 53.6 °F 31% 29.82 in 10.0 mi South 17.3 mph 25.3 mph N/A   Clear
7:55 PM 87.8 °F 85.7 °F 53.6 °F 31% 29.84 in 10.0 mi South 16.1 mph - N/A   Clear
8:15 PM 82.4 °F 81.7 °F 55.4 °F 39% 29.90 in 10.0 mi NW 20.7 mph 27.6 mph N/A   Scattered Clouds
8:35 PM 77.0 °F - 55.4 °F 47% 29.89 in 10.0 mi North 10.4 mph 24.2 mph N/A Rain , Thunderstorm Light Thunderstorms and Rain
8:55 PM 73.4 °F - 60.8 °F 65% 29.90 in 7.0 mi NNE 6.9 mph - N/A Rain , Thunderstorm Light Thunderstorms and Rain
9:15 PM 73.4 °F - 60.8 °F 65% 29.87 in 10.0 mi East 5.8 mph - N/A Rain , Thunderstorm Light Thunderstorms and Rain
9:35 PM 73.4 °F - 62.6 °F 69% 29.92 in 10.0 mi East 3.5 mph - N/A Rain , Thunderstorm Light Thunderstorms and Rain
9:55 PM 73.4 °F - 62.6 °F 69% 29.93 in 10.0 mi North 6.9 mph - N/A Rain , Thunderstorm Light Thunderstorms and Rain
10:15 PM 73.4 °F - 62.6 °F 69% 29.84 in 10.0 mi ESE 24.2 mph 29.9 mph 0.03 in Rain , Thunderstorm Heavy Thunderstorms and Rain
10:35 PM 73.4 °F - 64.4 °F 73% 29.83 in 10.0 mi SE 19.6 mph - 0.10 in Rain , Thunderstorm Light Thunderstorms and Rain
10:55 PM 73.4 °F - 66.2 °F 78% 29.86 in 10.0 mi SE 10.4 mph 17.3 mph 0.10 in Thunderstorm Thunderstorm
11:15 PM 75.2 °F - 66.2 °F 73% 29.85 in 10.0 mi SE 16.1 mph 24.2 mph N/A   Clear
11:35 PM 75.2 °F - 66.2 °F 73% 29.84 in 10.0 mi SSE 15.0 mph - N/A   Clear
11:55 PM 75.2 °F - 66.2 °F 73% 29.84 in 10.0 mi SSE 19.6 mph 24.2 mph N/A   Clear